owner,sensor,date,latitude,longitude,vertical_datum,sea_water_temperature,qcFlag 
WAVCIS,ioos:station:WAVCIS:CSI09:1,2017-03-01T00:00:00Z,29.1015,-89.9782,0.0,-7.23,11144222 
WAVCIS,ioos:station:WAVCIS:CSI09:1,2017-03-01T01:00:00Z,29.1015,-89.9782,0.0,-7.39,11144222 
WAVCIS,ioos:station:WAVCIS:CSI09:1,2017-03-01T02:00:00Z,29.1015,-89.9782,0.0,-6.233,11144222 
WAVCIS,ioos:station:WAVCIS:CSI09:1,2017-03-01T03:00:00Z,29.1015,-89.9782,0.0,-7.14,11144222 
WAVCIS,ioos:station:WAVCIS:CSI09:1,2017-03-01T04:00:00Z,29.1015,-89.9782,0.0,-7.97,11144222 
WAVCIS,ioos:station:WAVCIS:CSI09:1,2017-03-01T05:00:00Z,29.1015,-89.9782,0.0,-7.9,11144222 
WAVCIS,ioos:station:WAVCIS:CSI09:1,2017-03-01T06:00:00Z,29.1015,-89.9782,0.0,-8.3,11144222 
WAVCIS,ioos:station:WAVCIS:CSI09:1,2017-03-01T07:00:00Z,29.1015,-89.9782,0.0,-8.34,11144222 
WAVCIS,ioos:station:WAVCIS:CSI09:1,2017-03-01T08:00:00Z,29.1015,-89.9782,0.0,-5.894,11144222 
WAVCIS,ioos:station:WAVCIS:CSI09:1,2017-03-01T09:00:00Z,29.1015,-89.9782,0.0,-7.04,11144222 
WAVCIS,ioos:station:WAVCIS:CSI09:1,2017-03-01T10:00:00Z,29.1015,-89.9782,0.0,-7.41,11144222 
WAVCIS,ioos:station:WAVCIS:CSI09:1,2017-03-01T11:00:00Z,29.1015,-89.9782,0.0,-7.83,11144222 
WAVCIS,ioos:station:WAVCIS:CSI09:1,2017-03-01T12:00:00Z,29.1015,-89.9782,0.0,-8.61,11144222 
WAVCIS,ioos:station:WAVCIS:CSI09:1,2017-03-01T13:00:00Z,29.1015,-89.9782,0.0,-8.01,11144222 
WAVCIS,ioos:station:WAVCIS:CSI09:1,2017-03-01T14:00:00Z,29.1015,-89.9782,0.0,-8.64,11144222 
WAVCIS,ioos:station:WAVCIS:CSI09:1,2017-03-01T15:00:00Z,29.1015,-89.9782,0.0,-7.85,11144222 
WAVCIS,ioos:station:WAVCIS:CSI09:1,2017-03-01T16:00:00Z,29.1015,-89.9782,0.0,-8.99,11144222 
WAVCIS,ioos:station:WAVCIS:CSI09:1,2017-03-01T17:00:00Z,29.1015,-89.9782,0.0,-8.1,11144222 
WAVCIS,ioos:station:WAVCIS:CSI09:1,2017-03-01T18:00:00Z,29.1015,-89.9782,0.0,-8.57,11144222 
WAVCIS,ioos:station:WAVCIS:CSI09:1,2017-03-01T19:00:00Z,29.1015,-89.9782,0.0,-7.2,11144222 
WAVCIS,ioos:station:WAVCIS:CSI09:1,2017-03-01T20:00:00Z,29.1015,-89.9782,0.0,-8.17,11144222 
WAVCIS,ioos:station:WAVCIS:CSI09:1,2017-03-01T21:00:00Z,29.1015,-89.9782,0.0,-7.1,11144222 
WAVCIS,ioos:station:WAVCIS:CSI09:1,2017-03-01T22:00:00Z,29.1015,-89.9782,0.0,-7.68,11144222 
WAVCIS,ioos:station:WAVCIS:CSI09:1,2017-03-01T23:00:00Z,29.1015,-89.9782,0.0,-9.14,11144222 
WAVCIS,ioos:station:WAVCIS:CSI09:1,2017-03-02T00:00:00Z,29.1015,-89.9782,0.0,-7.67,11144222 
WAVCIS,ioos:station:WAVCIS:CSI09:1,2017-03-02T01:00:00Z,29.1015,-89.9782,0.0,-5.084,11144222 
WAVCIS,ioos:station:WAVCIS:CSI09:1,2017-03-02T02:00:00Z,29.1015,-89.9782,0.0,-7.64,11144222 
WAVCIS,ioos:station:WAVCIS:CSI09:1,2017-03-02T03:00:00Z,29.1015,-89.9782,0.0,-8.97,11144222 
WAVCIS,ioos:station:WAVCIS:CSI09:1,2017-03-02T04:00:00Z,29.1015,-89.9782,0.0,-9.48,11144222 
WAVCIS,ioos:station:WAVCIS:CSI09:1,2017-03-02T05:00:00Z,29.1015,-89.9782,0.0,-9.99,11144222 
WAVCIS,ioos:station:WAVCIS:CSI09:1,2017-03-02T06:00:00Z,29.1015,-89.9782,0.0,-9.34,11144222 
WAVCIS,ioos:station:WAVCIS:CSI09:1,2017-03-02T07:00:00Z,29.1015,-89.9782,0.0,-9.73,11144222 
WAVCIS,ioos:station:WAVCIS:CSI09:1,2017-03-02T08:00:00Z,29.1015,-89.9782,0.0,-10.93,11144222 
WAVCIS,ioos:station:WAVCIS:CSI09:1,2017-03-02T09:00:00Z,29.1015,-89.9782,0.0,-10.9,11144222 
WAVCIS,ioos:station:WAVCIS:CSI09:1,2017-03-02T10:00:00Z,29.1015,-89.9782,0.0,-11.21,11144222 
WAVCIS,ioos:station:WAVCIS:CSI09:1,2017-03-02T11:00:00Z,29.1015,-89.9782,0.0,-11.54,11144222 
WAVCIS,ioos:station:WAVCIS:CSI09:1,2017-03-02T12:00:00Z,29.1015,-89.9782,0.0,-10.42,11144222 
WAVCIS,ioos:station:WAVCIS:CSI09:1,2017-03-02T13:00:00Z,29.1015,-89.9782,0.0,-10.17,11144222 
WAVCIS,ioos:station:WAVCIS:CSI09:1,2017-03-02T14:00:00Z,29.1015,-89.9782,0.0,-9.01,11144222 
WAVCIS,ioos:station:WAVCIS:CSI09:1,2017-03-02T15:00:00Z,29.1015,-89.9782,0.0,-9.96,11144222 
WAVCIS,ioos:station:WAVCIS:CSI09:1,2017-03-02T16:00:00Z,29.1015,-89.9782,0.0,-9.55,11144222 
WAVCIS,ioos:station:WAVCIS:CSI09:1,2017-03-02T17:00:00Z,29.1015,-89.9782,0.0,-9.32,11144222 
WAVCIS,ioos:station:WAVCIS:CSI09:1,2017-03-02T18:00:00Z,29.1015,-89.9782,0.0,-10.33,11144222 
WAVCIS,ioos:station:WAVCIS:CSI09:1,2017-03-02T19:00:00Z,29.1015,-89.9782,0.0,-9.41,11144222 
WAVCIS,ioos:station:WAVCIS:CSI09:1,2017-03-02T20:00:00Z,29.1015,-89.9782,0.0,-9.89,11144222 
WAVCIS,ioos:station:WAVCIS:CSI09:1,2017-03-02T21:00:00Z,29.1015,-89.9782,0.0,-10.23,11144222 
WAVCIS,ioos:station:WAVCIS:CSI09:1,2017-03-02T22:00:00Z,29.1015,-89.9782,0.0,-10.15,11144222 
WAVCIS,ioos:station:WAVCIS:CSI09:1,2017-03-02T23:00:00Z,29.1015,-89.9782,0.0,-9.76,11144222 
WAVCIS,ioos:station:WAVCIS:CSI09:1,2017-03-03T00:00:00Z,29.1015,-89.9782,0.0,-10.04,11144222 
WAVCIS,ioos:station:WAVCIS:CSI09:1,2017-03-03T01:00:00Z,29.1015,-89.9782,0.0,-9.82,11144222 
WAVCIS,ioos:station:WAVCIS:CSI09:1,2017-03-03T02:00:00Z,29.1015,-89.9782,0.0,-10.71,11144222 
WAVCIS,ioos:station:WAVCIS:CSI09:1,2017-03-03T03:00:00Z,29.1015,-89.9782,0.0,-10.87,11144222 
WAVCIS,ioos:station:WAVCIS:CSI09:1,2017-03-03T04:00:00Z,29.1015,-89.9782,0.0,-9.94,11144222 
WAVCIS,ioos:station:WAVCIS:CSI09:1,2017-03-03T05:00:00Z,29.1015,-89.9782,0.0,-10.52,11144222 
WAVCIS,ioos:station:WAVCIS:CSI09:1,2017-03-03T06:00:00Z,29.1015,-89.9782,0.0,-11.15,11144222 
WAVCIS,ioos:station:WAVCIS:CSI09:1,2017-03-03T07:00:00Z,29.1015,-89.9782,0.0,-11.19,11144222 
WAVCIS,ioos:station:WAVCIS:CSI09:1,2017-03-03T08:00:00Z,29.1015,-89.9782,0.0,-10.82,11144222 
WAVCIS,ioos:station:WAVCIS:CSI09:1,2017-03-03T09:00:00Z,29.1015,-89.9782,0.0,-10.39,11144222 
WAVCIS,ioos:station:WAVCIS:CSI09:1,2017-03-03T10:00:00Z,29.1015,-89.9782,0.0,-10.55,11144222 
WAVCIS,ioos:station:WAVCIS:CSI09:1,2017-03-03T11:00:00Z,29.1015,-89.9782,0.0,-10.03,11144222 
WAVCIS,ioos:station:WAVCIS:CSI09:1,2017-03-03T12:00:00Z,29.1015,-89.9782,0.0,-9.7,11144222 
WAVCIS,ioos:station:WAVCIS:CSI09:1,2017-03-03T13:00:00Z,29.1015,-89.9782,0.0,-10.43,11144222 
WAVCIS,ioos:station:WAVCIS:CSI09:1,2017-03-03T14:00:00Z,29.1015,-89.9782,0.0,-9.74,11144222 
WAVCIS,ioos:station:WAVCIS:CSI09:1,2017-03-03T15:00:00Z,29.1015,-89.9782,0.0,-10.45,11144222 
WAVCIS,ioos:station:WAVCIS:CSI09:1,2017-03-03T16:00:00Z,29.1015,-89.9782,0.0,-2.911,11144222 
WAVCIS,ioos:station:WAVCIS:CSI09:1,2017-03-03T17:00:00Z,29.1015,-89.9782,0.0,-3.932,11144222 
WAVCIS,ioos:station:WAVCIS:CSI09:1,2017-03-03T18:00:00Z,29.1015,-89.9782,0.0,-4.554,11144222 
WAVCIS,ioos:station:WAVCIS:CSI09:1,2017-03-03T19:00:00Z,29.1015,-89.9782,0.0,-5.492,11144222 
WAVCIS,ioos:station:WAVCIS:CSI09:1,2017-03-03T20:00:00Z,29.1015,-89.9782,0.0,-4.297,11144222 
WAVCIS,ioos:station:WAVCIS:CSI09:1,2017-03-03T21:00:00Z,29.1015,-89.9782,0.0,-4.276,11144222 
WAVCIS,ioos:station:WAVCIS:CSI09:1,2017-03-03T22:00:00Z,29.1015,-89.9782,0.0,-4.439,11144222 
WAVCIS,ioos:station:WAVCIS:CSI09:1,2017-03-03T23:00:00Z,29.1015,-89.9782,0.0,-5.165,11144222 
WAVCIS,ioos:station:WAVCIS:CSI09:1,2017-03-04T00:00:00Z,29.1015,-89.9782,0.0,4.587,11133222 
WAVCIS,ioos:station:WAVCIS:CSI09:1,2017-03-04T01:00:00Z,29.1015,-89.9782,0.0,-1.959,11144222 
WAVCIS,ioos:station:WAVCIS:CSI09:1,2017-03-04T02:00:00Z,29.1015,-89.9782,0.0,1.38,11133222 
WAVCIS,ioos:station:WAVCIS:CSI09:1,2017-03-04T03:00:00Z,29.1015,-89.9782,0.0,-0.122,11144222 
WAVCIS,ioos:station:WAVCIS:CSI09:1,2017-03-04T04:00:00Z,29.1015,-89.9782,0.0,-0.401,11144222 
WAVCIS,ioos:station:WAVCIS:CSI09:1,2017-03-04T05:00:00Z,29.1015,-89.9782,0.0,-6.704,11144222 
WAVCIS,ioos:station:WAVCIS:CSI09:1,2017-03-04T06:00:00Z,29.1015,-89.9782,0.0,-6.128,11144222 
WAVCIS,ioos:station:WAVCIS:CSI09:1,2017-03-04T07:00:00Z,29.1015,-89.9782,0.0,-5.613,11144222 
WAVCIS,ioos:station:WAVCIS:CSI09:1,2017-03-04T08:00:00Z,29.1015,-89.9782,0.0,-4.102,11144222 
WAVCIS,ioos:station:WAVCIS:CSI09:1,2017-03-04T09:00:00Z,29.1015,-89.9782,0.0,-4.181,11144222 
WAVCIS,ioos:station:WAVCIS:CSI09:1,2017-03-04T10:00:00Z,29.1015,-89.9782,0.0,-3.758,11144222 
WAVCIS,ioos:station:WAVCIS:CSI09:1,2017-03-04T11:00:00Z,29.1015,-89.9782,0.0,-3.642,11144222 
WAVCIS,ioos:station:WAVCIS:CSI09:1,2017-03-04T12:00:00Z,29.1015,-89.9782,0.0,0.157,11133222 
WAVCIS,ioos:station:WAVCIS:CSI09:1,2017-03-04T13:00:00Z,29.1015,-89.9782,0.0,0.399,11133222 
WAVCIS,ioos:station:WAVCIS:CSI09:1,2017-03-04T14:00:00Z,29.1015,-89.9782,0.0,-3.722,11144222 
WAVCIS,ioos:station:WAVCIS:CSI09:1,2017-03-04T15:00:00Z,29.1015,-89.9782,0.0,2.311,11133222 
WAVCIS,ioos:station:WAVCIS:CSI09:1,2017-03-04T16:00:00Z,29.1015,-89.9782,0.0,2.932,11133222 
WAVCIS,ioos:station:WAVCIS:CSI09:1,2017-03-04T17:00:00Z,29.1015,-89.9782,0.0,3.03,11133222 
WAVCIS,ioos:station:WAVCIS:CSI09:1,2017-03-04T18:00:00Z,29.1015,-89.9782,0.0,4.093,11133222 
WAVCIS,ioos:station:WAVCIS:CSI09:1,2017-03-04T19:00:00Z,29.1015,-89.9782,0.0,4.209,11133222 
WAVCIS,ioos:station:WAVCIS:CSI09:1,2017-03-04T20:00:00Z,29.1015,-89.9782,0.0,3.952,11133222 
WAVCIS,ioos:station:WAVCIS:CSI09:1,2017-03-04T21:00:00Z,29.1015,-89.9782,0.0,4.428,11133222 
WAVCIS,ioos:station:WAVCIS:CSI09:1,2017-03-04T22:00:00Z,29.1015,-89.9782,0.0,1.921,11133222 
WAVCIS,ioos:station:WAVCIS:CSI09:1,2017-03-04T23:00:00Z,29.1015,-89.9782,0.0,0.526,11133222 
WAVCIS,ioos:station:WAVCIS:CSI09:1,2017-03-05T00:00:00Z,29.1015,-89.9782,0.0,-1.876,11144222 
WAVCIS,ioos:station:WAVCIS:CSI09:1,2017-03-05T01:00:00Z,29.1015,-89.9782,0.0,-2.379,11144222 
WAVCIS,ioos:station:WAVCIS:CSI09:1,2017-03-05T02:00:00Z,29.1015,-89.9782,0.0,-2.992,11144222 
WAVCIS,ioos:station:WAVCIS:CSI09:1,2017-03-05T03:00:00Z,29.1015,-89.9782,0.0,-3.395,11144222 
WAVCIS,ioos:station:WAVCIS:CSI09:1,2017-03-05T04:00:00Z,29.1015,-89.9782,0.0,-3.598,11144222 
WAVCIS,ioos:station:WAVCIS:CSI09:1,2017-03-05T05:00:00Z,29.1015,-89.9782,0.0,-3.176,11144222 
WAVCIS,ioos:station:WAVCIS:CSI09:1,2017-03-05T06:00:00Z,29.1015,-89.9782,0.0,-3.355,11144222 
WAVCIS,ioos:station:WAVCIS:CSI09:1,2017-03-05T07:00:00Z,29.1015,-89.9782,0.0,-4.064,11144222 
WAVCIS,ioos:station:WAVCIS:CSI09:1,2017-03-05T08:00:00Z,29.1015,-89.9782,0.0,-4.09,11144222 
WAVCIS,ioos:station:WAVCIS:CSI09:1,2017-03-05T09:00:00Z,29.1015,-89.9782,0.0,-3.223,11144222 
WAVCIS,ioos:station:WAVCIS:CSI09:1,2017-03-05T10:00:00Z,29.1015,-89.9782,0.0,-4.409,11144222 
WAVCIS,ioos:station:WAVCIS:CSI09:1,2017-03-05T11:00:00Z,29.1015,-89.9782,0.0,-4.185,11144222 
WAVCIS,ioos:station:WAVCIS:CSI09:1,2017-03-05T12:00:00Z,29.1015,-89.9782,0.0,-4.183,11144222 
WAVCIS,ioos:station:WAVCIS:CSI09:1,2017-03-05T13:00:00Z,29.1015,-89.9782,0.0,-2.803,11144222 
WAVCIS,ioos:station:WAVCIS:CSI09:1,2017-03-05T14:00:00Z,29.1015,-89.9782,0.0,-3.933,11144222 
WAVCIS,ioos:station:WAVCIS:CSI09:1,2017-03-05T15:00:00Z,29.1015,-89.9782,0.0,-3.154,11144222 
WAVCIS,ioos:station:WAVCIS:CSI09:1,2017-03-05T16:00:00Z,29.1015,-89.9782,0.0,-4.501,11144222 
WAVCIS,ioos:station:WAVCIS:CSI09:1,2017-03-05T17:00:00Z,29.1015,-89.9782,0.0,-3.452,11144222 
WAVCIS,ioos:station:WAVCIS:CSI09:1,2017-03-05T18:00:00Z,29.1015,-89.9782,0.0,-2.996,11144222 
WAVCIS,ioos:station:WAVCIS:CSI09:1,2017-03-05T19:00:00Z,29.1015,-89.9782,0.0,-3.185,11144222 
WAVCIS,ioos:station:WAVCIS:CSI09:1,2017-03-05T20:00:00Z,29.1015,-89.9782,0.0,-2.673,11144222 
WAVCIS,ioos:station:WAVCIS:CSI09:1,2017-03-05T21:00:00Z,29.1015,-89.9782,0.0,-2.458,11144222 
WAVCIS,ioos:station:WAVCIS:CSI09:1,2017-03-05T22:00:00Z,29.1015,-89.9782,0.0,-3.32,11144222 
WAVCIS,ioos:station:WAVCIS:CSI09:1,2017-03-05T23:00:00Z,29.1015,-89.9782,0.0,-2.828,11144222 
WAVCIS,ioos:station:WAVCIS:CSI09:1,2017-03-06T00:00:00Z,29.1015,-89.9782,0.0,-2.327,11144222 
WAVCIS,ioos:station:WAVCIS:CSI09:1,2017-03-06T01:00:00Z,29.1015,-89.9782,0.0,-2.557,11144222 
WAVCIS,ioos:station:WAVCIS:CSI09:1,2017-03-06T02:00:00Z,29.1015,-89.9782,0.0,-3.547,11144222 
WAVCIS,ioos:station:WAVCIS:CSI09:1,2017-03-06T03:00:00Z,29.1015,-89.9782,0.0,-3.776,11144222 
WAVCIS,ioos:station:WAVCIS:CSI09:1,2017-03-06T04:00:00Z,29.1015,-89.9782,0.0,-2.873,11144222 
WAVCIS,ioos:station:WAVCIS:CSI09:1,2017-03-06T05:00:00Z,29.1015,-89.9782,0.0,-3.621,11144222 
WAVCIS,ioos:station:WAVCIS:CSI09:1,2017-03-06T06:00:00Z,29.1015,-89.9782,0.0,-3.792,11144222 
WAVCIS,ioos:station:WAVCIS:CSI09:1,2017-03-06T07:00:00Z,29.1015,-89.9782,0.0,-3.609,11144222 
WAVCIS,ioos:station:WAVCIS:CSI09:1,2017-03-06T08:00:00Z,29.1015,-89.9782,0.0,-3.901,11144222 
WAVCIS,ioos:station:WAVCIS:CSI09:1,2017-03-06T09:00:00Z,29.1015,-89.9782,0.0,-3.2,11144222 
WAVCIS,ioos:station:WAVCIS:CSI09:1,2017-03-06T10:00:00Z,29.1015,-89.9782,0.0,-3.851,11144222 
WAVCIS,ioos:station:WAVCIS:CSI09:1,2017-03-06T11:00:00Z,29.1015,-89.9782,0.0,-4.181,11144222 
WAVCIS,ioos:station:WAVCIS:CSI09:1,2017-03-06T12:00:00Z,29.1015,-89.9782,0.0,-3.317,11144222 
WAVCIS,ioos:station:WAVCIS:CSI09:1,2017-03-06T13:00:00Z,29.1015,-89.9782,0.0,-2.815,11144222 
WAVCIS,ioos:station:WAVCIS:CSI09:1,2017-03-06T14:00:00Z,29.1015,-89.9782,0.0,-4.508,11144222 
WAVCIS,ioos:station:WAVCIS:CSI09:1,2017-03-06T15:00:00Z,29.1015,-89.9782,0.0,-2.995,11144222 
WAVCIS,ioos:station:WAVCIS:CSI09:1,2017-03-06T16:00:00Z,29.1015,-89.9782,0.0,-2.652,11144222 
WAVCIS,ioos:station:WAVCIS:CSI09:1,2017-03-06T17:00:00Z,29.1015,-89.9782,0.0,-4.049,11144222 
WAVCIS,ioos:station:WAVCIS:CSI09:1,2017-03-06T18:00:00Z,29.1015,-89.9782,0.0,-4.101,11144222 
WAVCIS,ioos:station:WAVCIS:CSI09:1,2017-03-06T19:00:00Z,29.1015,-89.9782,0.0,-3.599,11144222 
WAVCIS,ioos:station:WAVCIS:CSI09:1,2017-03-06T20:00:00Z,29.1015,-89.9782,0.0,-3.917,11144222 
WAVCIS,ioos:station:WAVCIS:CSI09:1,2017-03-06T21:00:00Z,29.1015,-89.9782,0.0,-3.604,11144222 
WAVCIS,ioos:station:WAVCIS:CSI09:1,2017-03-06T22:00:00Z,29.1015,-89.9782,0.0,-2.327,11144222 
WAVCIS,ioos:station:WAVCIS:CSI09:1,2017-03-06T23:00:00Z,29.1015,-89.9782,0.0,-3.041,11144222 
WAVCIS,ioos:station:WAVCIS:CSI09:1,2017-03-07T00:00:00Z,29.1015,-89.9782,0.0,-2.245,11144222 
WAVCIS,ioos:station:WAVCIS:CSI09:1,2017-03-07T01:00:00Z,29.1015,-89.9782,0.0,-2.407,11144222 
WAVCIS,ioos:station:WAVCIS:CSI09:1,2017-03-07T02:00:00Z,29.1015,-89.9782,0.0,-2.707,11144222 
WAVCIS,ioos:station:WAVCIS:CSI09:1,2017-03-07T03:00:00Z,29.1015,-89.9782,0.0,-3.04,11144222 
WAVCIS,ioos:station:WAVCIS:CSI09:1,2017-03-07T04:00:00Z,29.1015,-89.9782,0.0,-1.992,11144222 
WAVCIS,ioos:station:WAVCIS:CSI09:1,2017-03-07T05:00:00Z,29.1015,-89.9782,0.0,-4.561,11144222 
WAVCIS,ioos:station:WAVCIS:CSI09:1,2017-03-07T06:00:00Z,29.1015,-89.9782,0.0,-3.279,11144222 
WAVCIS,ioos:station:WAVCIS:CSI09:1,2017-03-07T07:00:00Z,29.1015,-89.9782,0.0,-3.303,11144222 
WAVCIS,ioos:station:WAVCIS:CSI09:1,2017-03-07T08:00:00Z,29.1015,-89.9782,0.0,-3.864,11144222 
WAVCIS,ioos:station:WAVCIS:CSI09:1,2017-03-07T09:00:00Z,29.1015,-89.9782,0.0,-3.261,11144222 
WAVCIS,ioos:station:WAVCIS:CSI09:1,2017-03-07T10:00:00Z,29.1015,-89.9782,0.0,-3.42,11144222 
WAVCIS,ioos:station:WAVCIS:CSI09:1,2017-03-07T11:00:00Z,29.1015,-89.9782,0.0,-3.367,11144222 
WAVCIS,ioos:station:WAVCIS:CSI09:1,2017-03-07T12:00:00Z,29.1015,-89.9782,0.0,-2.921,11144222 
WAVCIS,ioos:station:WAVCIS:CSI09:1,2017-03-07T13:00:00Z,29.1015,-89.9782,0.0,-3.495,11144222 
WAVCIS,ioos:station:WAVCIS:CSI09:1,2017-03-07T14:00:00Z,29.1015,-89.9782,0.0,-2.687,11144222 
WAVCIS,ioos:station:WAVCIS:CSI09:1,2017-03-07T15:00:00Z,29.1015,-89.9782,0.0,-3.178,11144222 
WAVCIS,ioos:station:WAVCIS:CSI09:1,2017-03-07T16:00:00Z,29.1015,-89.9782,0.0,-3.907,11144222 
WAVCIS,ioos:station:WAVCIS:CSI09:1,2017-03-07T17:00:00Z,29.1015,-89.9782,0.0,-3.782,11144222 
WAVCIS,ioos:station:WAVCIS:CSI09:1,2017-03-07T18:00:00Z,29.1015,-89.9782,0.0,-3.729,11144222 
WAVCIS,ioos:station:WAVCIS:CSI09:1,2017-03-07T19:00:00Z,29.1015,-89.9782,0.0,-2.626,11144222 
WAVCIS,ioos:station:WAVCIS:CSI09:1,2017-03-07T20:00:00Z,29.1015,-89.9782,0.0,-4.655,11144222 
WAVCIS,ioos:station:WAVCIS:CSI09:1,2017-03-07T21:00:00Z,29.1015,-89.9782,0.0,-3.735,11144222 
WAVCIS,ioos:station:WAVCIS:CSI09:1,2017-03-07T22:00:00Z,29.1015,-89.9782,0.0,-2.666,11144222 
WAVCIS,ioos:station:WAVCIS:CSI09:1,2017-03-07T23:00:00Z,29.1015,-89.9782,0.0,-4.291,11144222 
WAVCIS,ioos:station:WAVCIS:CSI09:1,2017-03-08T00:00:00Z,29.1015,-89.9782,0.0,-2.803,11144222 
WAVCIS,ioos:station:WAVCIS:CSI09:1,2017-03-08T01:00:00Z,29.1015,-89.9782,0.0,-4.449,11144222 
WAVCIS,ioos:station:WAVCIS:CSI09:1,2017-03-08T02:00:00Z,29.1015,-89.9782,0.0,-3.908,11144222 
WAVCIS,ioos:station:WAVCIS:CSI09:1,2017-03-08T03:00:00Z,29.1015,-89.9782,0.0,-3.447,11144222 
WAVCIS,ioos:station:WAVCIS:CSI09:1,2017-03-08T04:00:00Z,29.1015,-89.9782,0.0,-2.796,11144222 
WAVCIS,ioos:station:WAVCIS:CSI09:1,2017-03-08T05:00:00Z,29.1015,-89.9782,0.0,-3.953,11144222 
WAVCIS,ioos:station:WAVCIS:CSI09:1,2017-03-08T06:00:00Z,29.1015,-89.9782,0.0,-4.806,11144222 
WAVCIS,ioos:station:WAVCIS:CSI09:1,2017-03-08T07:00:00Z,29.1015,-89.9782,0.0,-4.431,11144222 
WAVCIS,ioos:station:WAVCIS:CSI09:1,2017-03-08T08:00:00Z,29.1015,-89.9782,0.0,-3.881,11144222 
WAVCIS,ioos:station:WAVCIS:CSI09:1,2017-03-08T09:00:00Z,29.1015,-89.9782,0.0,-3.941,11144222 
WAVCIS,ioos:station:WAVCIS:CSI09:1,2017-03-08T10:00:00Z,29.1015,-89.9782,0.0,-4.267,11144222 
WAVCIS,ioos:station:WAVCIS:CSI09:1,2017-03-08T11:00:00Z,29.1015,-89.9782,0.0,-4.092,11144222 
WAVCIS,ioos:station:WAVCIS:CSI09:1,2017-03-08T12:00:00Z,29.1015,-89.9782,0.0,-3.701,11144222 
WAVCIS,ioos:station:WAVCIS:CSI09:1,2017-03-08T13:00:00Z,29.1015,-89.9782,0.0,-4.489,11144222 
WAVCIS,ioos:station:WAVCIS:CSI09:1,2017-03-08T14:00:00Z,29.1015,-89.9782,0.0,-4.776,11144222 
WAVCIS,ioos:station:WAVCIS:CSI09:1,2017-03-08T15:00:00Z,29.1015,-89.9782,0.0,-4.744,11144222 
WAVCIS,ioos:station:WAVCIS:CSI09:1,2017-03-08T16:00:00Z,29.1015,-89.9782,0.0,-4.629,11144222 
WAVCIS,ioos:station:WAVCIS:CSI09:1,2017-03-08T17:00:00Z,29.1015,-89.9782,0.0,-4.42,11144222 
WAVCIS,ioos:station:WAVCIS:CSI09:1,2017-03-08T18:00:00Z,29.1015,-89.9782,0.0,-4.377,11144222 
WAVCIS,ioos:station:WAVCIS:CSI09:1,2017-03-08T19:00:00Z,29.1015,-89.9782,0.0,-4.89,11144222 
WAVCIS,ioos:station:WAVCIS:CSI09:1,2017-03-08T20:00:00Z,29.1015,-89.9782,0.0,-4.894,11144222 
WAVCIS,ioos:station:WAVCIS:CSI09:1,2017-03-08T21:00:00Z,29.1015,-89.9782,0.0,-4.585,11144222 
WAVCIS,ioos:station:WAVCIS:CSI09:1,2017-03-08T22:00:00Z,29.1015,-89.9782,0.0,-4.182,11144222 
WAVCIS,ioos:station:WAVCIS:CSI09:1,2017-03-08T23:00:00Z,29.1015,-89.9782,0.0,-5.505,11144222 
WAVCIS,ioos:station:WAVCIS:CSI09:1,2017-03-09T00:00:00Z,29.1015,-89.9782,0.0,-4.84,11144222 
WAVCIS,ioos:station:WAVCIS:CSI09:1,2017-03-09T01:00:00Z,29.1015,-89.9782,0.0,-5.481,11144222 
WAVCIS,ioos:station:WAVCIS:CSI09:1,2017-03-09T02:00:00Z,29.1015,-89.9782,0.0,-5.223,11144222 
WAVCIS,ioos:station:WAVCIS:CSI09:1,2017-03-09T03:00:00Z,29.1015,-89.9782,0.0,-4.716,11144222 
WAVCIS,ioos:station:WAVCIS:CSI09:1,2017-03-09T04:00:00Z,29.1015,-89.9782,0.0,-4.647,11144222 
WAVCIS,ioos:station:WAVCIS:CSI09:1,2017-03-09T05:00:00Z,29.1015,-89.9782,0.0,-5.593,11144222 
WAVCIS,ioos:station:WAVCIS:CSI09:1,2017-03-09T06:00:00Z,29.1015,-89.9782,0.0,-4.91,11144222 
WAVCIS,ioos:station:WAVCIS:CSI09:1,2017-03-09T07:00:00Z,29.1015,-89.9782,0.0,-5.026,11144222 
WAVCIS,ioos:station:WAVCIS:CSI09:1,2017-03-09T08:00:00Z,29.1015,-89.9782,0.0,-5.096,11144222 
WAVCIS,ioos:station:WAVCIS:CSI09:1,2017-03-09T09:00:00Z,29.1015,-89.9782,0.0,-5.482,11144222 
WAVCIS,ioos:station:WAVCIS:CSI09:1,2017-03-09T10:00:00Z,29.1015,-89.9782,0.0,-5.278,11144222 
WAVCIS,ioos:station:WAVCIS:CSI09:1,2017-03-09T11:00:00Z,29.1015,-89.9782,0.0,-6.488,11144222 
WAVCIS,ioos:station:WAVCIS:CSI09:1,2017-03-09T12:00:00Z,29.1015,-89.9782,0.0,-5.855,11144222 
WAVCIS,ioos:station:WAVCIS:CSI09:1,2017-03-09T13:00:00Z,29.1015,-89.9782,0.0,-6.188,11144222 
WAVCIS,ioos:station:WAVCIS:CSI09:1,2017-03-09T14:00:00Z,29.1015,-89.9782,0.0,-7.13,11144222 
WAVCIS,ioos:station:WAVCIS:CSI09:1,2017-03-09T15:00:00Z,29.1015,-89.9782,0.0,-6.122,11144222 
WAVCIS,ioos:station:WAVCIS:CSI09:1,2017-03-09T16:00:00Z,29.1015,-89.9782,0.0,-6.949,11144222 
WAVCIS,ioos:station:WAVCIS:CSI09:1,2017-03-09T17:00:00Z,29.1015,-89.9782,0.0,-5.908,11144222 
WAVCIS,ioos:station:WAVCIS:CSI09:1,2017-03-09T18:00:00Z,29.1015,-89.9782,0.0,-6.348,11144222 
WAVCIS,ioos:station:WAVCIS:CSI09:1,2017-03-09T19:00:00Z,29.1015,-89.9782,0.0,-6.909,11144222 
WAVCIS,ioos:station:WAVCIS:CSI09:1,2017-03-09T20:00:00Z,29.1015,-89.9782,0.0,-5.895,11144222 
WAVCIS,ioos:station:WAVCIS:CSI09:1,2017-03-09T21:00:00Z,29.1015,-89.9782,0.0,-5.828,11144222 
WAVCIS,ioos:station:WAVCIS:CSI09:1,2017-03-09T22:00:00Z,29.1015,-89.9782,0.0,-5.218,11144222 
WAVCIS,ioos:station:WAVCIS:CSI09:1,2017-03-09T23:00:00Z,29.1015,-89.9782,0.0,-5.384,11144222 
WAVCIS,ioos:station:WAVCIS:CSI09:1,2017-03-10T00:00:00Z,29.1015,-89.9782,0.0,-5.317,11144222 
WAVCIS,ioos:station:WAVCIS:CSI09:1,2017-03-10T01:00:00Z,29.1015,-89.9782,0.0,-6.767,11144222 
WAVCIS,ioos:station:WAVCIS:CSI09:1,2017-03-10T02:00:00Z,29.1015,-89.9782,0.0,-6.326,11144222 
WAVCIS,ioos:station:WAVCIS:CSI09:1,2017-03-10T03:00:00Z,29.1015,-89.9782,0.0,-6.556,11144222 
WAVCIS,ioos:station:WAVCIS:CSI09:1,2017-03-10T04:00:00Z,29.1015,-89.9782,0.0,-8.2,11144222 
WAVCIS,ioos:station:WAVCIS:CSI09:1,2017-03-10T05:00:00Z,29.1015,-89.9782,0.0,-8.68,11144222 
WAVCIS,ioos:station:WAVCIS:CSI09:1,2017-03-10T06:00:00Z,29.1015,-89.9782,0.0,-3.474,11144222 
WAVCIS,ioos:station:WAVCIS:CSI09:1,2017-03-10T07:00:00Z,29.1015,-89.9782,0.0,-3.215,11144222 
WAVCIS,ioos:station:WAVCIS:CSI09:1,2017-03-10T08:00:00Z,29.1015,-89.9782,0.0,-2.985,11144222 
WAVCIS,ioos:station:WAVCIS:CSI09:1,2017-03-10T09:00:00Z,29.1015,-89.9782,0.0,-2.4,11144222 
WAVCIS,ioos:station:WAVCIS:CSI09:1,2017-03-10T10:00:00Z,29.1015,-89.9782,0.0,-2.745,11144222 
WAVCIS,ioos:station:WAVCIS:CSI09:1,2017-03-10T11:00:00Z,29.1015,-89.9782,0.0,-3.498,11144222 
WAVCIS,ioos:station:WAVCIS:CSI09:1,2017-03-10T12:00:00Z,29.1015,-89.9782,0.0,-2.927,11144222 
WAVCIS,ioos:station:WAVCIS:CSI09:1,2017-03-10T13:00:00Z,29.1015,-89.9782,0.0,-1.482,11144222 
WAVCIS,ioos:station:WAVCIS:CSI09:1,2017-03-10T14:00:00Z,29.1015,-89.9782,0.0,1.059,11133222 
WAVCIS,ioos:station:WAVCIS:CSI09:1,2017-03-10T15:00:00Z,29.1015,-89.9782,0.0,1.448,11133222 
WAVCIS,ioos:station:WAVCIS:CSI09:1,2017-03-10T16:00:00Z,29.1015,-89.9782,0.0,0.677,11133222 
WAVCIS,ioos:station:WAVCIS:CSI09:1,2017-03-10T17:00:00Z,29.1015,-89.9782,0.0,0.314,11133222 
WAVCIS,ioos:station:WAVCIS:CSI09:1,2017-03-10T18:00:00Z,29.1015,-89.9782,0.0,3.215,11133222 
WAVCIS,ioos:station:WAVCIS:CSI09:1,2017-03-10T19:00:00Z,29.1015,-89.9782,0.0,3.926,11133222 
WAVCIS,ioos:station:WAVCIS:CSI09:1,2017-03-10T20:00:00Z,29.1015,-89.9782,0.0,3.338,11133222 
WAVCIS,ioos:station:WAVCIS:CSI09:1,2017-03-10T21:00:00Z,29.1015,-89.9782,0.0,4.913,11133222 
WAVCIS,ioos:station:WAVCIS:CSI09:1,2017-03-10T22:00:00Z,29.1015,-89.9782,0.0,3.74,11133222 
WAVCIS,ioos:station:WAVCIS:CSI09:1,2017-03-10T23:00:00Z,29.1015,-89.9782,0.0,3.452,11133222 
WAVCIS,ioos:station:WAVCIS:CSI09:1,2017-03-11T00:00:00Z,29.1015,-89.9782,0.0,4.049,11133222 
WAVCIS,ioos:station:WAVCIS:CSI09:1,2017-03-11T01:00:00Z,29.1015,-89.9782,0.0,2.492,11133222 
WAVCIS,ioos:station:WAVCIS:CSI09:1,2017-03-11T02:00:00Z,29.1015,-89.9782,0.0,3.384,11133222 
WAVCIS,ioos:station:WAVCIS:CSI09:1,2017-03-11T03:00:00Z,29.1015,-89.9782,0.0,2.911,11133222 
WAVCIS,ioos:station:WAVCIS:CSI09:1,2017-03-11T04:00:00Z,29.1015,-89.9782,0.0,3.102,11133222 
WAVCIS,ioos:station:WAVCIS:CSI09:1,2017-03-11T05:00:00Z,29.1015,-89.9782,0.0,3.717,11133222 
WAVCIS,ioos:station:WAVCIS:CSI09:1,2017-03-11T06:00:00Z,29.1015,-89.9782,0.0,3.237,11133222 
WAVCIS,ioos:station:WAVCIS:CSI09:1,2017-03-11T07:00:00Z,29.1015,-89.9782,0.0,3.806,11133222 
WAVCIS,ioos:station:WAVCIS:CSI09:1,2017-03-11T08:00:00Z,29.1015,-89.9782,0.0,3.55,11133222 
WAVCIS,ioos:station:WAVCIS:CSI09:1,2017-03-11T09:00:00Z,29.1015,-89.9782,0.0,3.439,11133222 
WAVCIS,ioos:station:WAVCIS:CSI09:1,2017-03-11T10:00:00Z,29.1015,-89.9782,0.0,1.62,11133222 
WAVCIS,ioos:station:WAVCIS:CSI09:1,2017-03-11T11:00:00Z,29.1015,-89.9782,0.0,2.16,11133222 
WAVCIS,ioos:station:WAVCIS:CSI09:1,2017-03-11T12:00:00Z,29.1015,-89.9782,0.0,2.94,11133222 
WAVCIS,ioos:station:WAVCIS:CSI09:1,2017-03-11T13:00:00Z,29.1015,-89.9782,0.0,1.93,11133222 
WAVCIS,ioos:station:WAVCIS:CSI09:1,2017-03-11T14:00:00Z,29.1015,-89.9782,0.0,3.65,11133222 